Date String (YYYY-MM-DD hh:mm:ss) UTC,Instrument flags,Ambient pressure (hPa),Sample flow (lpm),Bypass flow (lpm),Sample temperature (°C),Ambient temperature (°C),ASC tube jacket temperature (°C),LED temperature (°C),Box temperature (°C),Sample RH (%),Span deviation,Mass concentration (μg/m³),Mass concentration (μg/m³),Mass concentration (μg/m³)
DateTimeUTC,F1_M11,P_M11,Q1_M11,Q2_M11,T1_M11,T2_M11,T3_M11,T4_M11,T5_M11,U1_M11,ZSPAN_M11,X0_M11,X2_M11,X1_M11
2023-01-02 08:00:00,,0818.6,4.97,0.00,22.9,21.4,00.0,31.7,24.6,16.8,0000.0,0008.86,0006.78,0006.70
2023-01-02 08:01:00,,0818.5,5.00,0.00,22.8,21.4,00.0,31.7,24.6,16.8,0000.0,0008.83,0006.75,0006.67
2023-01-02 08:02:00,,0818.4,5.05,0.00,22.8,21.4,00.0,31.7,24.6,16.8,0000.0,0008.79,0006.70,0006.62
2023-01-02 08:03:00,,0818.4,5.01,0.00,22.8,21.4,00.0,31.7,24.6,16.8,0000.0,0008.82,0006.69,0006.62
2023-01-02 08:04:00,,0818.4,4.97,0.00,22.8,21.4,00.0,31.7,24.6,16.8,0000.0,0008.87,0006.71,0006.64
2023-01-02 08:05:00,,0818.4,5.02,0.00,22.8,21.4,00.0,31.7,24.6,16.8,0000.0,0008.92,0006.74,0006.67
2023-01-02 08:06:00,,0818.4,4.97,0.00,22.8,21.3,00.0,31.7,24.5,16.8,0000.0,0008.95,0006.76,0006.68
2023-01-02 08:07:00,,0818.4,4.99,0.00,22.8,21.3,00.0,31.6,24.5,16.8,0000.0,0008.95,0006.76,0006.68
2023-01-02 08:08:00,,0818.4,4.98,0.00,22.8,21.3,00.0,31.6,24.5,16.8,0000.0,0008.96,0006.79,0006.71
2023-01-02 08:09:00,,0818.3,5.00,0.00,22.8,21.3,00.0,31.6,24.5,16.8,0000.0,0009.03,0006.83,0006.74
2023-01-02 08:10:00,,0818.3,5.02,0.00,22.7,21.3,00.0,31.6,24.5,16.8,0000.0,0009.09,0006.86,0006.76
2023-01-02 08:11:00,,0818.3,5.02,0.00,22.7,21.2,00.0,31.6,24.5,16.8,0000.0,0009.15,0006.89,0006.77
2023-01-02 08:12:00,,0818.2,4.96,0.00,22.7,21.2,00.0,31.6,24.5,16.9,0000.0,0009.21,0006.94,0006.82
2023-01-02 08:13:00,,0818.2,4.98,0.00,22.7,21.2,00.0,31.6,24.4,16.9,0000.0,0009.31,0007.03,0006.90
2023-01-02 08:14:00,,0818.2,5.01,0.00,22.7,21.2,00.0,31.6,24.4,16.9,0000.0,0009.31,0007.08,0006.94
2023-01-02 08:15:00,,0818.3,4.99,0.00,22.7,21.2,00.0,31.6,24.4,16.9,0000.0,0009.29,0007.10,0006.96
2023-01-02 08:16:00,,0818.4,5.02,0.00,22.7,21.1,00.0,31.6,24.4,17.3,0000.0,0009.27,0007.10,0006.97
2023-01-02 08:17:00,,0818.4,4.97,0.00,22.7,21.1,00.0,31.6,24.4,17.3,0000.0,0009.26,0007.09,0006.97
2023-01-02 08:18:00,,0818.4,4.99,0.00,22.6,21.1,00.0,31.5,24.4,17.0,0000.0,0009.31,0007.09,0006.95
2023-01-02 08:19:00,,0818.4,4.98,0.00,22.6,21.1,00.0,31.5,24.4,17.0,0000.0,0009.35,0007.08,0006.93
2023-01-02 08:20:00,,0818.4,5.02,0.00,22.6,21.1,00.0,31.5,24.4,16.9,0000.0,0009.33,0007.06,0006.90
2023-01-02 08:21:00,,0818.4,5.03,0.00,22.6,21.1,00.0,31.5,24.3,16.9,-000.1,0009.34,0007.05,0006.90
2023-01-02 08:22:00,,0818.4,4.99,0.00,22.6,21.1,00.0,31.5,24.3,16.9,-000.5,0009.33,0007.04,0006.89
2023-01-02 08:23:00,,0818.4,4.99,0.00,22.6,21.1,00.0,31.5,24.3,16.9,-000.7,0009.29,0007.00,0006.86
2023-01-02 08:24:00,,0818.4,4.95,0.00,22.6,21.1,00.0,31.5,24.3,16.9,-000.8,0009.25,0006.96,0006.83
2023-01-02 08:25:00,,0818.4,5.01,0.00,22.6,21.1,00.0,31.5,24.3,16.9,-001.0,0009.25,0006.93,0006.78
2023-01-02 08:26:00,,0818.4,5.01,0.00,22.6,21.1,00.0,31.5,24.3,16.9,-001.2,0009.20,0006.88,0006.72
2023-01-02 08:27:00,,0818.4,5.01,0.00,22.6,21.1,00.0,31.5,24.3,16.9,-001.4,0009.17,0006.85,0006.69
2023-01-02 08:28:00,,0818.4,5.04,0.00,22.6,21.1,00.0,31.4,24.3,17.0,-001.2,0009.11,0006.81,0006.66
2023-01-02 08:29:00,,0818.4,5.00,0.00,22.5,21.1,00.0,31.4,24.3,17.0,-001.5,0009.04,0006.78,0006.64
2023-01-02 08:30:00,,0818.4,4.98,0.00,22.5,21.1,00.0,31.4,24.3,17.0,-001.5,0008.97,0006.74,0006.62
2023-01-02 08:31:00,,0818.4,5.07,0.00,22.5,21.0,00.0,31.4,24.3,17.0,-001.5,0008.91,0006.72,0006.60
2023-01-02 08:32:00,,0818.4,4.98,0.00,22.5,21.1,00.0,31.4,24.3,17.0,0000.0,0008.87,0006.70,0006.59
2023-01-02 08:33:00,,0818.4,5.01,0.00,22.5,21.1,00.0,31.4,24.2,17.0,0000.0,0008.82,0006.66,0006.56
2023-01-02 08:34:00,,0818.4,4.97,0.00,22.5,21.1,00.0,31.4,24.2,17.0,0000.0,0008.79,0006.63,0006.52
2023-01-02 08:35:00,,0818.4,5.07,0.00,22.5,21.1,00.0,31.4,24.3,17.0,0000.0,0008.71,0006.57,0006.47
2023-01-02 08:36:00,,0818.4,4.98,0.00,22.6,21.7,00.0,31.3,24.4,16.9,0000.0,0008.60,0006.50,0006.41
2023-01-02 08:37:00,,0818.4,5.01,0.00,22.7,22.6,00.0,31.3,24.7,16.9,0000.0,0008.50,0006.42,0006.34
2023-01-02 08:38:00,,0818.4,4.97,0.00,22.8,22.9,00.0,31.4,24.8,16.8,0000.0,0008.42,0006.33,0006.25
2023-01-02 08:39:00,,0818.4,5.01,0.00,22.8,22.6,00.0,31.4,24.8,16.7,0000.0,0008.36,0006.27,0006.19
2023-01-02 08:40:00,,0818.4,5.02,0.00,22.8,22.3,00.0,31.5,24.7,16.7,0000.0,0008.31,0006.21,0006.13
2023-01-02 08:41:00,,0818.4,4.99,0.00,22.8,22.0,00.0,31.5,24.6,16.7,0000.0,0008.22,0006.13,0006.06
2023-01-02 08:42:00,,0818.4,5.00,0.00,22.8,21.9,00.0,31.5,24.6,16.7,-000.3,0008.15,0006.07,0006.00
2023-01-02 08:43:00,,0818.4,4.98,0.00,22.8,21.8,00.0,31.5,24.6,16.7,0000.0,0008.04,0005.97,0005.91
2023-01-02 08:44:00,,0818.4,5.01,0.00,22.8,21.7,00.0,31.5,24.6,16.7,-001.8,0007.96,0005.90,0005.84
2023-01-02 08:45:00,,0818.4,5.03,0.00,22.8,21.6,00.0,31.5,24.5,16.7,-000.9,0007.88,0005.83,0005.79
2023-01-02 08:46:00,,0818.4,5.02,0.00,22.8,21.6,00.0,31.5,24.6,16.7,0000.0,0007.86,0005.81,0005.76
2023-01-02 08:47:00,,0818.4,4.96,0.00,22.8,21.6,00.0,31.5,24.5,16.7,0000.0,0007.84,0005.80,0005.75
2023-01-02 08:48:00,,0818.4,5.01,0.00,22.8,21.5,00.0,31.5,24.5,16.7,0000.0,0007.85,0005.80,0005.75
2023-01-02 08:49:00,,0818.4,5.04,0.00,22.8,21.5,00.0,31.5,24.5,16.7,-000.8,0007.88,0005.80,0005.75
2023-01-02 08:50:00,,0818.4,4.97,0.00,22.8,21.4,00.0,31.5,24.5,16.7,-000.8,0007.88,0005.81,0005.75
2023-01-02 08:51:00,,0818.4,4.98,0.00,22.7,21.4,00.0,31.5,24.5,16.7,-000.9,0007.87,0005.80,0005.75
2023-01-02 08:52:00,,0818.4,4.98,0.00,22.7,21.4,00.0,31.5,24.5,16.7,-000.1,0007.89,0005.82,0005.76
2023-01-02 08:53:00,,0818.4,4.98,0.00,22.7,21.4,00.0,31.5,24.5,16.7,0000.0,0007.92,0005.83,0005.76
2023-01-02 08:54:00,,0818.4,5.02,0.00,22.7,21.3,00.0,31.5,24.5,16.8,0000.0,0007.95,0005.84,0005.77
2023-01-02 08:55:00,,0818.4,5.07,0.00,22.7,21.3,00.0,31.5,24.4,16.8,0000.0,0007.95,0005.86,0005.79
2023-01-02 08:56:00,,0818.4,5.00,0.00,22.7,21.3,00.0,31.5,24.4,16.8,-000.4,0007.96,0005.88,0005.81
2023-01-02 08:57:00,,0818.4,4.98,0.00,22.7,21.3,00.0,31.5,24.4,16.8,-000.7,0007.97,0005.89,0005.82
2023-01-02 08:58:00,,0818.4,5.02,0.00,22.7,21.3,00.0,31.5,24.4,16.8,-001.4,0007.97,0005.87,0005.80
2023-01-02 08:59:00,,0818.3,5.00,0.00,22.7,21.3,00.0,31.5,24.4,16.8,-001.3,0007.99,0005.84,0005.77
